Pompano Beach, FL

8:02 AM EST on February 23, 2018 (GMT -0500)
Pompano Beach

Weather History for KPMP - April, 2012

Change the Weather History Date:

Sunday, April 22, 2012

  Actual Average Record
Temperature  
Mean Temperature 73 °F -  
Max Temperature 82 °F 85 °F 91 °F (1982)
Min Temperature 64 °F 67 °F 55 °F (1953)
Cooling Degree Days 8    
Growing Degree Days 23 (Base 50)    
Moisture  
Dew Point 66 °F    
Average Humidity 83    
Maximum Humidity 100    
Minimum Humidity 46    
Precipitation  
Precipitation 0.51 in - - ()
Sea Level Pressure  
Sea Level Pressure 29.64 in    
Wind  
Wind Speed 16 mph (WSW)    
Max Wind Speed 24 mph    
Max Gust Speed 40 mph    
Visibility 8 miles    
Events Rain , Thunderstorm    
Averages and records for this station are not official NWS values.
T = Trace of Precipitation, MM = Missing Value Source: NWS Daily Summary

Daily Weather History Graph

Daily Weather History Graph

Search for Another Location

Airport or City:

Trip Planner

Search our weather history database for the weather conditions in past years. The results will help you decide how hot, cold, wet, or windy it might be!

Date:

Astronomy

Apr. 22, 2012 Rise Set
Actual Time 6:50 AM EDT 7:47 PM EDT
Civil Twilight 6:26 AM EDT 8:11 PM EDT
Nautical Twilight 5:57 AM EDT 8:40 PM EDT
Astronomical Twilight 5:29 AM EDT 9:09 PM EDT
Moon 7:29 AM EDT (4/22) 9:11 PM EDT (4/22)
Length of Visible Light 13h 45m
Length of Day
12h 57m
New Moon, 2% of the Moon is Illuminated
Apr 22
New Moon
Apr 29
First Quarter
May 5
Full
May 12
Last Quarter
May 20
New

Hourly Weather History & Observations

Time (EDT) Temp. Heat Index Dew Point Humidity Pressure Visibility Wind Dir Wind Speed Gust Speed Precip Events Conditions
12:14 AM 73.4 °F - 71.6 °F 94% 29.69 in 10.0 mi SSE 18.4 mph 32.2 mph 0.00 in Rain Light Rain
12:53 AM 75.0 °F - 72.0 °F 90% 29.68 in 10.0 mi SSE 18.4 mph 26.5 mph 0.00 in   Mostly Cloudy
1:30 AM 73.4 °F - 71.6 °F 94% 29.64 in 10.0 mi South 15.0 mph 25.3 mph 0.01 in   Scattered Clouds
1:53 AM 73.9 °F - 71.1 °F 91% 29.64 in 10.0 mi South 12.7 mph - 0.01 in   Scattered Clouds
2:15 AM 73.4 °F - 71.6 °F 94% 29.63 in 10.0 mi SSW 12.7 mph - N/A   Mostly Cloudy
2:53 AM 73.0 °F - 71.1 °F 93% 29.61 in 10.0 mi South 13.8 mph - N/A   Mostly Cloudy
3:53 AM 73.9 °F - 71.1 °F 91% 29.61 in 10.0 mi SSW 12.7 mph 20.7 mph N/A   Overcast
4:53 AM 73.0 °F - 71.1 °F 93% 29.61 in 10.0 mi SSW 9.2 mph - N/A   Overcast
5:35 AM 68.0 °F - 66.2 °F 94% 29.61 in 10.0 mi West 24.2 mph 36.8 mph 0.00 in Rain , Thunderstorm Light Thunderstorms and Rain
5:44 AM 64.4 °F - 64.4 °F 100% 29.62 in 3.0 mi West 21.9 mph 28.8 mph 0.10 in Rain , Thunderstorm Heavy Thunderstorms and Rain
5:50 AM 64.4 °F - 64.4 °F 100% 29.62 in 2.0 mi West 15.0 mph 28.8 mph 0.16 in Rain , Thunderstorm Heavy Thunderstorms and Rain
5:51 AM 64.9 °F - 64.9 °F 100% 29.62 in 2.0 mi West 12.7 mph - 0.17 in Rain , Thunderstorm Heavy Rain
6:00 AM 64.4 °F - 64.4 °F 100% 29.62 in 9.0 mi WSW 11.5 mph - 0.02 in Rain , Thunderstorm Light Rain
6:21 AM 64.4 °F - 64.4 °F 100% 29.61 in 10.0 mi WSW 4.6 mph - 0.02 in   Overcast
6:53 AM 64.9 °F - 64.9 °F 100% 29.62 in 10.0 mi SSW 5.8 mph - 0.02 in   Scattered Clouds
7:53 AM 66.9 °F - 66.9 °F 100% 29.62 in 10.0 mi SSW 6.9 mph - N/A   Partly Cloudy
9:53 AM 75.0 °F - 66.0 °F 73% 29.63 in 10.0 mi WSW 12.7 mph - N/A   Clear
10:53 AM 80.1 °F 81.2 °F 62.1 °F 54% 29.64 in 10.0 mi SW 21.9 mph 27.6 mph N/A   Scattered Clouds
11:53 AM 72.0 °F - 66.9 °F 84% 29.66 in 7.0 mi West 18.4 mph 40.3 mph 0.00 in Rain Light Rain
12:53 PM 75.9 °F - 64.9 °F 69% 29.63 in 10.0 mi WSW 15.0 mph 20.7 mph 0.01 in   Overcast
1:05 PM 69.8 °F - 66.2 °F 88% 29.65 in 0.8 mi WSW 20.7 mph 34.5 mph 0.21 in Rain Heavy Rain
1:15 PM 66.2 °F - 66.2 °F 100% 29.64 in 2.5 mi SW 20.7 mph 25.3 mph 0.29 in Rain Light Rain
1:22 PM 68.0 °F - 66.2 °F 94% 29.63 in 5.0 mi SW 12.7 mph 25.3 mph 0.30 in Rain Light Rain
1:53 PM 75.9 °F - 69.1 °F 79% 29.62 in 10.0 mi SW 20.7 mph 24.2 mph 0.30 in   Mostly Cloudy
2:53 PM 80.1 °F 82.3 °F 66.9 °F 64% 29.59 in 10.0 mi WSW 19.6 mph 25.3 mph N/A   Partly Cloudy
3:53 PM 81.0 °F 81.7 °F 61.0 °F 50% 29.58 in 10.0 mi West 19.6 mph 28.8 mph N/A   Mostly Cloudy
4:53 PM 82.9 °F 83.2 °F 60.1 °F 46% 29.58 in 10.0 mi West 19.6 mph 29.9 mph N/A   Mostly Cloudy
6:53 PM 80.1 °F 81.2 °F 62.1 °F 54% 29.62 in 10.0 mi West 18.4 mph 26.5 mph N/A   Partly Cloudy
7:53 PM 77.0 °F - 62.1 °F 60% 29.66 in 10.0 mi West 20.7 mph - N/A   Partly Cloudy
8:53 PM 75.0 °F - 64.0 °F 69% 29.69 in 10.0 mi West 16.1 mph - N/A   Clear
9:53 PM 73.0 °F - 63.0 °F 71% 29.72 in 10.0 mi West 17.3 mph - N/A   Clear
10:53 PM 71.1 °F - 62.1 °F 73% 29.74 in 10.0 mi West 17.3 mph 24.2 mph N/A   Clear
11:53 PM 69.1 °F - 63.0 °F 81% 29.76 in 10.0 mi West 12.7 mph - N/A   Clear